Terminal Aerodrome Forecast
Issued by NWS

Home | Current Version | Previous Version | Graphics & Text | Print | Product List | Glossary On
Versions: 1 2 3 4 5 6 7 8 9 10 11 12 13 14 15 16 17 18 19 20 21 22 23 24 25 26 27
000
FTUS43 KLOT 230524 CCA
TAFGYY
TAF COR
KGYY 230524Z 2306/2406 13011KT 3SM BR OVC008
     FM230800 15009KT 2SM -RA BR OVC003
      TEMPO 2309/2313 1SM -RA BR
     FM231300 20007KT 5SM BR OVC006
     FM231600 24011KT P6SM OVC012
     FM231900 26012G18KT P6SM SCT015 OVC025
     FM240200 29006KT P6SM BKN060=

USA.gov is the U.S. government's official web portal to all federal, state and local government web resources and services.